Flag for United Kingdom Weather past 2 weeks in Londonderry, Northern Ireland, United Kingdom

Now
57 °F

Rain. Overcast.


Feels Like: 54 °F
Forecast: 56 / 65 °F
Wind: 14 mph from Southeast

Location: Castlederg

Current Time: Aug 27, 2014 at 10:40:37 PM

Latest Report: Aug 27, 2014 at 9:00 PM


Visibility: 3 mi

Pressure: 29.57 "Hg

Humidity: 94%

Dew point: 55 °F

Location of LondonderryLocation

Historic Weather in Londonderry — Graph

°F

Londonderry temperature yesterday

Maximum temperature yesterday: 66 °F (at 3:00 PM)
Minimum temperature yesterday: 49 °F (at 11:00 PM)
Average temperature yesterday: 59 °F

Past Weeks' High & Low Weather Summary

 TemperatureHumidityPressure
High66 °F (Aug 26, 3:00 PM)100% (Aug 27, 6:00 AM)30.17 "Hg (Aug 27, 6:00 AM)
Low35 °F (Aug 24, 6:00 AM)53% (Aug 22, 6:00 PM)29.56 "Hg (Aug 25, 5:00 PM)
Average54 °F80%29.90 "Hg
* Reported Aug 12 9:00 PM — Aug 27 9:00 PM, Londonderry, Weather by CustomWeather, © 2014

Note: Actual official high and low records may vary slightly from our data, if they occured in-between our weather recording intervals... More about our weather records

Advertising

Londonderry weather history for previous 24 hours

 ConditionsComfort  
Time TempWeatherWind HumidityBarometerVisibility
9:00 PM
Aug 27
57 °FRain. Overcast.14 mph94%29.57 "Hg3 mi
8:00 PM59 °FRain showers. Cloudy.16 mph81%29.58 "Hg7 mi
7:00 PM60 °FCool.17 mph74%29.62 "Hg14 mi
6:00 PM60 °FCool.17 mph72%29.66 "Hg17 mi
4:00 PM64 °FMild.14 mph64%29.70 "Hg22 mi
3:00 PM63 °FMild.17 mph65%29.74 "Hg22 mi
2:00 PM63 °FMild.14 mph67%29.77 "Hg17 mi
1:00 PM61 °FCool.17 mph71%29.80 "Hg18 mi
12:00 PM61 °FCool.16 mph74%29.82 "Hg15 mi
11:00 AM58 °FCool.13 mph80%29.86 "Hg16 mi
10:00 AM56 °FCool.13 mph81%29.88 "Hg12 mi
9:00 AM56 °FCool.10 mph89%29.90 "Hg6 mi
8:00 AM51 °FCool.7 mph100%29.91 "Hg6 mi
7:00 AM49 °FFog.6 mph99%29.90 "Hg6 mi
6:00 AM48 °FFog.2 mph100%29.91 "Hg3 mi
5:00 AM47 °FFog.2 mph99%29.93 "Hg2 mi
4:00 AM46 °FFog.1 mph99%29.94 "Hg4 mi
3:00 AM46 °FFog.1 mph99%29.95 "Hg6 mi
2:00 AM45 °FFog.2 mph97%29.96 "Hg6 mi
1:00 AM46 °FCool.1 mph96%29.96 "Hg8 mi
12:00 AM47 °FCool.1 mph94%29.96 "Hg6 mi
11:00 PM
Aug 26
49 °FCool.1 mph92%29.95 "Hg8 mi
10:00 PM52 °FCool.3 mph85%29.94 "Hg14 mi
Weather by CustomWeather, © 2014

See weather overviewHow to use our weather pages